Temp
57 57 58 58 58 58 58 58 59 59 60 60 60 60 60 59 59 60 72 83 76 73 79 86 88 82 83 84 73 77 87 88 86 78 78 60 55 57 56 66 57 52 53 70 75 71 64 89 89 79 83 90 91 91
57 57 57 58 58 57 58 58 58 58 59 60 60 60 59 59 58 58 68 85 85 74 78 85 88 91 89 85 80 76 67 83 87 83 74 58 57 54 61 58 63 52 61 74 78 75 85 90 88 91 93 89 89 89
56 57 57 57 57 57 57 58 58 58 59 59 59 60 59 59 58 57 68 77 79 75 78 84 85 94 98 96 97 79 88 89 90 92 84 77 69 76 65 67 77 75 88 81 79 85 86 89 91 90 92 92 93 93
56 56 57 57 57 57 57 57 57 58 58 59 59 59 59 58 58 57 67 78 78 76 72 84 98 90 97 98 95 95 92 93 93 90 86 83 79 83 79 81 80 85 85 80 79 84 87 89 90 91 91 92 92 92
56 56 56 56 56 56 57 57 57 58 58 58 59 59 58 58 57 60 69 76 81 72 70 75 90 95 96 94 91 92 92 90 88 84 83 80 87 84 86 84 80 87 82 79 77 83 82 84 90 91 89 89 91 90
55 56 56 56 56 56 56 56 57 57 58 58 58 58 58 57 57 64 70 79 84 81 71 72 90 87 91 90 88 88 89 89 88 85 83 87 89 83 76 75 85 91 91 87 81 86 87 88 90 92 90 90 91 90
55 55 56 56 56 56 56 56 56 56 57 57 58 58 57 56 61 66 65 69 59 77 72 72 77 88 89 88 88 87 89 87 87 84 82 83 84 82 76 71 84 87 86 85 87 86 82 86 85 91 91 91 86 89
55 55 55 56 56 56 56 56 55 56 56 57 57 56 56 56 56 65 76 60 61 73 77 69 74 79 88 80 79 88 83 84 84 82 85 81 80 80 71 80 85 86 85 84 85 87 87 89 89 89 90 90 86 86
55 55 55 55 56 56 56 55 55 56 56 57 56 56 61 62 70 70 61 61 74 71 66 72 70 70 87 82 84 83 85 75 85 78 78 81 76 71 76 78 81 82 81 82 86 86 88 86 86 87 87 86 84 80
55 55 55 55 55 55 55 55 55 55 55 55 59 64 65 72 59 62 68 69 70 73 72 68 79 72 82 80 79 79 80 74 71 77 82 75 74 81 83 83 83 84 83 84 81 80 83 82 84 83 80 82 81 79
54 54 54 55 55 55 54 55 54 54 54 56 58 61 70 60 72 70 63 64 68 65 72 73 74 70 81 74 74 79 73 76 67 73 72 70 71 77 83 82 83 83 83 84 85 86 84 84 80 77 78 79 79 77
54 54 54 55 54 54 54 54 54 54 54 55 57 61 72 67 65 61 61 66 66 63 74 72 74 78 78 82 75 76 70 71 64 79 68 64 71 77 79 80 81 82 83 84 85 82 81 79 80 78 74 76 76 74
54 54 54 54 54 54 54 53 53 53 54 57 56 60 61 60 45 53 53 60 63 71 74 75 72 77 75 78 72 72 65 64 74 67 64 71 71 75 76 78 79 82 83 82 80 79 78 76 77 77 74 75 74 71
54 54 54 54 54 54 53 53 53 54 52 53 53 42 54 55 61 62 66 67 73 75 74 74 72 71 76 71 70 62 66 70 61 60 64 60 70 73 76 78 78 78 79 78 77 77 76 74 73 73 73 73 72 69
53 53 53 53 53 53 52 52 52 54 53 56 59 47 59 65 70 69 73 71 75 76 74 65 72 71 69 67 69 64 61 59 63 62 63 69 70 71 74 76 76 74 71 72 76 75 74 73 72 71 72 71 70 69
53 53 52 53 53 52 52 52 52 54 56 61 62 60 66 67 67 72 71 71 77 74 69 65 61 59 61 65 63 61 61 59 63 69 63 67 63 65 69 72 71 69 67 67 68 69 66 66 67 67 71 70 69 68
53 49 52 52 52 52 52 53 52 52 55 60 61 65 65 69 67 63 70 66 71 68 59 67 58 58 65 60 60 69 63 68 68 60 67 70 69 68 68 68 68 69 71 73 72 72 72 72 72 69 67 68 70 69
49 51 52 52 52 52 52 53 53 55 54 63 61 65 67 70 65 70 69 70 71 70 61 58 65 61 59 57 63 68 65 68 67 60 70 68 68 68 68 63 60 61 65 68 72 72 71 70 69 69 68 68 69 69
50 51 52 52 52 51 50 52 55 50 57 63 66 69 69 70 70 68 70 74 74 75 65 61 58 59 58 66 65 70 67 73 72 72 67 70 70 69 70 69 68 67 68 69 70 71 72 71 73 75 74 72 72 73
52 52 52 52 52 50 49 51 59 53 56 62 65 64 65 68 71 70 71 73 72 69 63 54 59 70 70 70 67 74 73 62 74 71 69 73 74 72 72 73 72 71 68 70 73 64 74 72 74 75 75 71 71 72
52 50 52 51 50 51 57 56 56 57 63 61 66 65 62 65 67 67 67 71 67 65 65 70 71 71 72 74 75 66 72 67 63 65 63 67 58 72 62 75 72 69 64 68 73 72 65 72 74 76 73 73 73 74
49 51 50 51 51 57 58 61 60 62 61 59 61 62 61 62 63 66 71 67 66 68 71 72 68 66 71 70 74 74 75 74 76 71 64 68 75 73 71 63 66 67 63 63 57 63 57 54 66 68 75 74 70 73
50 50 52 55 54 50 48 62 53 55 52 59 64 59 60 63 67 70 64 67 69 74 74 73 72 74 72 73 74 74 75 74 74 76 76 77 78 78 76 77 79 74 72 72 73 69 59 52 62 65 73 74 73 73
51 54 54 55 56 48 61 54 60 58 59 58 56 55 58 61 66 61 58 62 69 72 71 70 73 71 72 71 70 72 74 76 76 76 77 76 76 76 79 79 80 81 79 80 73 72 63 58 57 70 73 73 72 72
45 47 50 36 58 54 54 54 56 58 56 59 56 57 61 65 60 60 61 67 71 71 72 71 71 71 70 73 75 75 76 77 75 73 76 78 77 77 77 79 80 81 83 79 72 67 61 57 58 57 61 70 66 67
37 52 44 54 55 54 56 53 55 57 57 57 60 63 63 61 57 57 62 60 66 67 70 69 67 69 66 70 72 75 76 79 78 74 77 79 78 76 75 74 75 76 79 76 67 58 60 65 66 65 67 64 56 66
41 48 56 63 60 60 58 59 63 60 55 54 58 57 56 51 52 60 62 65 68 70 71 67 66 70 71 72 74 77 75 72 74 72 77 78 79 79 77 73 66 69 69 71 67 67 63 68 68 67 68 70 71 69
52 53 50 55 55 60 54 55 53 52 56 60 60 53 52 53 54 63 66 68 70 72 73 72 73 72 74 75 74 69 70 79 78 76 66 69 78 79 78 76 67 55 65 66 77 78 75 71 69 70 70 68 67 73
52 55 54 51 52 54 54 56 57 61 62 62 53 54 56 63 65 65 68 71 74 72 65 66 69 70 72 76 72 73 73 71 69 68 68 67 70 63 67 74 80 77 77 77 48 63 75 75 75 75 74 73 74 69
51 60 54 52 51 53 60 62 60 61 64 62 61 60 58 61 69 73 73 72 67 67 69 72 72 71 73 72 75 77 81 78 70 74 65 73 73 77 79 78 78 78 77 77 78 74 51 67 67 73 71 74 74 74
55 52 50 52 52 58 59 61 64 64 59 54 58 57 61 66 67 71 65 61 66 72 72 74 73 74 71 71 72 74 69 77 73 81 75 74 74 80 81 83 82 81 80 79 78 76 76 74 76 64 61 61 60 66
48 45 44 45 48 53 54 54 54 55 58 58 60 63 65 63 55 63 72 75 64 66 61 69 66 68 68 69 74 76 57 64 74 80 76 78 69 73 81 84 79 79 81 78 79 78 75 75 75 68 66 62 61 63
53 51 52 52 55 57 60 58 56 56 59 59 59 64 62 59 55 66 76 66 56 57 61 68 68 73 76 76 77 79 70 78 62 46 47 46 42 57 79 78 78 77 80 79 78 75 66 67 72 67 65 61 60 60
MSLP
1014.20 1014.22 1014.33 1014.47 1014.58 1014.69 1014.72 1014.86 1015.07 1015.28 1015.51 1015.74 1015.87 1015.92 1015.90 1015.80 1015.63 1015.38 1012.04 1010.22 1009.91 1008.03 1005.96 1004.89 1004.10 1002.98 1002.28 1001.91 1001.93 1001.06 999.55 999.28 999.07 999.45 1000.40 1003.75 1006.50 1008.07 1007.48 1007.80 1007.52 1007.29 1007.68 1003.22 1001.92 1001.44 1001.64 1001.59 1000.52 1000.45 1001.18 1000.89 1000.86 1001.17
1013.43 1013.48 1013.62 1013.78 1013.98 1014.06 1014.09 1014.23 1014.53 1014.82 1015.11 1015.40 1015.57 1015.67 1015.69 1015.67 1015.54 1015.47 1012.41 1009.80 1009.67 1009.15 1006.41 1005.47 1004.52 1003.87 1003.61 1003.92 1003.27 1002.46 1002.66 1000.02 999.71 999.72 1001.58 1005.22 1008.05 1008.62 1008.11 1007.57 1007.47 1008.07 1006.41 1003.43 1001.74 1001.58 1001.53 1001.20 1001.33 1001.53 1001.34 1001.32 1001.70 1002.06
1012.68 1012.77 1012.95 1013.19 1013.36 1013.44 1013.57 1013.76 1014.10 1014.39 1014.75 1015.11 1015.29 1015.41 1015.47 1015.47 1015.41 1015.44 1013.38 1011.09 1009.93 1008.54 1006.40 1004.46 1003.25 1002.32 1002.69 1003.06 1003.18 1003.15 1001.55 1001.10 1000.10 1000.78 1001.34 1003.15 1004.28 1005.24 1005.16 1003.78 1002.42 1004.09 1001.56 1001.97 1001.93 1001.33 1001.33 1001.40 1001.70 1002.23 1002.17 1001.89 1001.93 1002.38
1012.01 1012.12 1012.34 1012.59 1012.79 1012.94 1013.11 1013.31 1013.57 1013.96 1014.48 1014.84 1015.04 1015.16 1015.26 1015.26 1015.21 1015.23 1013.51 1011.27 1010.20 1008.75 1006.28 1002.52 1001.72 1002.45 1002.52 1002.43 1002.78 1002.82 1002.03 1001.55 1001.49 1001.48 1001.23 1001.45 1001.93 1002.09 1001.60 1001.40 1001.76 1001.50 1001.89 1001.83 1002.04 1001.79 1001.65 1001.69 1002.06 1002.28 1002.53 1002.79 1002.80 1003.19
1011.37 1011.54 1011.73 1012.00 1012.28 1012.50 1012.59 1012.78 1013.17 1013.72 1014.25 1014.61 1014.82 1014.94 1015.03 1015.06 1015.00 1014.65 1013.27 1011.61 1010.34 1009.86 1006.99 1004.28 1002.62 1001.72 1002.39 1002.55 1002.66 1002.82 1002.54 1002.05 1001.58 1001.13 1001.08 1001.23 1001.23 1001.45 1001.13 1001.55 1001.48 1001.46 1001.37 1001.53 1001.86 1002.31 1002.46 1002.43 1002.55 1002.70 1003.06 1003.29 1003.52 1003.91
1010.77 1011.02 1011.26 1011.56 1011.82 1012.07 1012.29 1012.54 1012.95 1013.55 1014.06 1014.43 1014.65 1014.77 1014.87 1014.89 1014.82 1013.88 1011.26 1010.25 1009.82 1009.65 1008.46 1004.69 1002.63 1002.34 1002.31 1002.77 1002.86 1002.69 1002.41 1002.10 1001.83 1001.49 1001.28 1001.13 1001.36 1002.08 1001.84 1001.57 1001.34 1001.00 1001.30 1001.85 1002.50 1002.99 1003.10 1003.22 1003.30 1003.30 1003.34 1003.74 1003.97 1004.51
1010.30 1010.60 1010.86 1011.12 1011.46 1011.71 1012.08 1012.33 1012.86 1013.45 1013.94 1014.35 1014.55 1014.65 1014.69 1014.71 1014.45 1013.09 1012.63 1011.98 1011.85 1010.56 1008.49 1005.42 1002.84 1002.02 1002.61 1002.88 1002.63 1002.52 1002.57 1002.26 1002.00 1001.96 1001.76 1001.91 1001.95 1002.65 1002.84 1002.46 1001.89 1001.80 1002.21 1002.96 1003.54 1003.81 1003.89 1003.72 1003.68 1003.59 1003.82 1004.14 1004.96 1005.54
1009.91 1010.12 1010.42 1010.78 1011.13 1011.43 1011.86 1012.33 1012.87 1013.48 1013.96 1014.30 1014.48 1014.53 1014.52 1014.40 1014.09 1012.70 1010.99 1011.71 1012.04 1010.23 1008.06 1005.73 1003.22 1002.51 1002.82 1002.47 1002.23 1002.37 1002.30 1002.58 1002.27 1002.26 1001.87 1002.24 1002.88 1003.05 1002.94 1002.68 1002.40 1002.61 1003.06 1003.67 1004.11 1004.14 1004.04 1003.81 1003.95 1003.96 1004.35 1004.72 1005.53 1006.25
1009.48 1009.78 1010.11 1010.52 1010.81 1011.23 1011.72 1012.26 1012.92 1013.59 1014.01 1014.25 1014.36 1014.37 1014.08 1013.63 1011.53 1011.30 1011.59 1011.64 1011.22 1010.64 1008.15 1005.53 1003.61 1002.25 1002.37 1002.36 1002.17 1002.38 1002.43 1002.31 1002.35 1002.28 1002.38 1002.45 1002.69 1002.50 1002.85 1003.16 1003.11 1003.47 1003.93 1004.12 1004.09 1004.26 1004.05 1004.32 1004.38 1004.71 1005.10 1005.60 1006.23 1007.24
1009.14 1009.46 1009.82 1010.16 1010.57 1011.10 1011.67 1012.32 1013.09 1013.72 1014.08 1014.29 1014.18 1013.29 1011.56 1010.88 1011.58 1011.82 1011.92 1010.74 1010.09 1008.81 1008.10 1005.78 1003.59 1002.76 1002.72 1002.30 1002.02 1002.26 1002.69 1002.53 1001.83 1002.03 1002.41 1002.39 1002.34 1002.48 1002.63 1003.14 1003.59 1003.95 1004.56 1004.76 1004.56 1004.33 1004.50 1004.76 1005.03 1005.40 1006.16 1006.77 1007.56 1008.41
1008.87 1009.16 1009.49 1009.88 1010.44 1011.10 1011.79 1012.50 1013.23 1013.81 1014.14 1014.07 1013.25 1011.78 1011.25 1011.62 1011.31 1010.40 1009.67 1008.82 1007.77 1006.83 1005.98 1005.15 1004.33 1003.30 1002.84 1002.39 1002.20 1002.40 1002.47 1002.43 1002.10 1001.97 1002.06 1002.20 1002.15 1002.21 1002.65 1003.41 1004.13 1004.66 1004.98 1005.20 1005.13 1005.10 1005.27 1005.42 1005.85 1006.47 1007.26 1008.13 1008.70 1009.60
1008.59 1008.87 1009.21 1009.74 1010.42 1011.13 1011.90 1012.65 1013.24 1013.65 1013.59 1013.49 1013.17 1011.95 1011.08 1010.87 1010.24 1009.24 1008.31 1007.52 1006.10 1005.21 1003.90 1003.85 1003.80 1003.64 1003.68 1003.45 1003.19 1003.21 1003.04 1003.23 1002.45 1002.19 1002.77 1002.89 1003.13 1003.30 1003.49 1003.96 1004.64 1004.97 1005.12 1005.27 1005.43 1005.96 1006.68 1007.20 1007.63 1008.14 1008.64 1009.43 1009.96 1010.87
1008.37 1008.73 1009.20 1009.79 1010.55 1011.33 1012.14 1012.81 1013.33 1013.54 1013.38 1013.10 1012.86 1011.47 1010.43 1010.08 1009.62 1008.33 1006.89 1005.75 1004.95 1004.07 1003.68 1003.69 1003.57 1003.70 1004.62 1004.62 1004.14 1004.31 1004.04 1003.88 1003.51 1003.42 1002.97 1002.91 1004.25 1004.60 1004.71 1004.89 1005.17 1005.41 1005.48 1005.97 1006.77 1007.49 1008.17 1008.81 1009.19 1009.41 1010.12 1010.61 1011.10 1011.77
1008.18 1008.68 1009.37 1010.13 1010.89 1011.71 1012.43 1013.01 1013.45 1013.62 1013.61 1012.80 1011.97 1010.88 1009.58 1008.18 1007.01 1006.18 1005.23 1004.76 1004.14 1003.97 1004.03 1004.33 1004.16 1004.55 1004.41 1004.66 1004.61 1004.97 1004.95 1004.88 1004.48 1003.83 1003.65 1004.47 1005.32 1005.50 1005.65 1005.72 1005.90 1006.14 1006.66 1007.31 1007.96 1008.57 1009.24 1009.96 1010.46 1010.78 1011.05 1011.34 1011.82 1012.40
1008.28 1009.04 1009.86 1010.65 1011.36 1012.17 1012.81 1013.35 1013.72 1013.76 1013.13 1011.64 1010.29 1009.02 1007.67 1006.64 1005.75 1005.44 1005.14 1005.05 1004.62 1004.56 1004.58 1005.02 1004.95 1004.88 1004.86 1004.82 1004.79 1005.70 1005.55 1004.94 1004.50 1004.16 1004.84 1005.69 1006.18 1006.63 1006.60 1006.65 1007.07 1007.32 1007.87 1008.44 1008.98 1009.55 1010.12 1010.64 1011.06 1011.46 1011.78 1012.10 1012.49 1012.85
1008.93 1009.75 1010.58 1011.28 1011.97 1012.65 1013.20 1013.72 1013.84 1013.48 1012.39 1010.68 1009.14 1007.83 1006.70 1005.99 1005.47 1004.90 1004.91 1004.73 1004.93 1005.05 1005.52 1005.77 1005.97 1006.11 1005.74 1005.54 1005.21 1005.08 1004.89 1004.64 1004.87 1005.54 1005.84 1006.38 1007.21 1007.75 1008.20 1008.23 1008.39 1008.71 1009.20 1009.81 1010.35 1010.73 1010.99 1011.22 1011.49 1011.63 1012.03 1012.40 1012.69 1012.97
1009.29 1010.25 1011.20 1011.87 1012.48 1013.11 1013.44 1013.58 1013.55 1013.01 1011.53 1009.44 1008.14 1007.78 1007.02 1006.07 1005.93 1006.11 1005.68 1005.92 1005.81 1005.72 1006.23 1005.98 1006.39 1006.38 1006.54 1005.82 1005.10 1004.74 1004.87 1005.23 1006.30 1006.94 1006.52 1007.13 1007.57 1008.27 1008.74 1008.93 1009.28 1009.37 1009.62 1010.04 1010.42 1010.79 1011.03 1011.27 1011.55 1011.78 1012.18 1012.56 1012.65 1012.96
1010.14 1011.11 1011.77 1012.41 1012.83 1013.42 1013.57 1013.45 1012.87 1011.74 1010.42 1008.96 1007.73 1007.12 1007.10 1006.41 1006.75 1006.26 1006.23 1006.49 1006.37 1006.09 1006.81 1006.98 1006.94 1006.37 1006.03 1005.69 1005.17 1005.29 1005.78 1006.16 1006.81 1007.67 1007.86 1008.22 1008.53 1008.84 1009.19 1009.76 1010.32 1010.73 1010.51 1010.43 1010.62 1011.02 1011.29 1011.44 1011.59 1011.75 1012.10 1012.52 1012.59 1012.70
1010.96 1011.65 1012.38 1012.78 1012.96 1012.93 1013.15 1013.14 1012.59 1011.16 1009.50 1008.47 1007.63 1007.33 1006.96 1006.66 1007.00 1007.05 1006.74 1006.65 1006.74 1006.79 1006.88 1006.81 1007.01 1006.05 1006.32 1006.05 1005.48 1005.82 1006.25 1006.32 1006.50 1007.16 1008.20 1008.46 1008.66 1009.02 1009.32 1009.77 1010.24 1010.41 1010.38 1010.36 1010.45 1010.70 1010.78 1011.06 1010.93 1010.78 1011.09 1011.56 1011.47 1011.58
1012.06 1012.55 1012.87 1013.14 1013.14 1012.90 1012.62 1012.41 1011.93 1010.98 1009.18 1008.51 1007.98 1007.67 1007.63 1007.03 1006.90 1007.14 1007.09 1006.65 1006.52 1006.57 1006.54 1007.19 1006.65 1005.91 1005.84 1006.08 1006.58 1006.26 1006.63 1006.89 1006.62 1007.08 1007.53 1007.71 1008.19 1008.73 1008.89 1009.00 1009.29 1009.64 1010.31 1010.39 1010.09 1010.33 1010.40 1010.78 1010.91 1010.85 1011.05 1011.40 1011.52 1011.36
1012.72 1013.29 1013.39 1013.42 1013.11 1012.74 1011.80 1011.04 1010.70 1010.34 1009.27 1008.47 1008.02 1007.94 1007.85 1007.58 1007.03 1007.00 1006.99 1006.96 1006.82 1006.53 1006.16 1005.71 1006.04 1006.55 1006.61 1006.56 1006.77 1006.80 1006.80 1007.09 1007.44 1007.21 1007.93 1008.22 1009.17 1009.00 1008.72 1008.42 1008.77 1009.32 1010.00 1009.88 1009.71 1009.95 1010.32 1010.10 1009.84 1010.05 1010.82 1011.47 1011.57 1011.43
1013.25 1013.41 1013.30 1013.13 1012.68 1011.71 1011.22 1010.83 1010.35 1009.86 1009.06 1008.68 1008.40 1008.29 1007.57 1007.02 1006.86 1006.61 1006.38 1006.25 1006.23 1006.14 1006.05 1005.69 1006.27 1006.49 1006.60 1006.50 1006.53 1006.79 1006.97 1007.24 1007.13 1007.24 1007.47 1007.64 1007.45 1007.98 1008.16 1008.68 1009.08 1008.97 1009.20 1009.50 1010.09 1009.97 1010.27 1011.18 1011.27 1010.13 1010.30 1010.91 1011.41 1011.49
1013.31 1013.26 1012.95 1012.36 1011.74 1011.23 1011.02 1010.57 1010.25 1010.04 1009.21 1008.31 1007.83 1007.66 1007.28 1006.94 1006.81 1007.06 1006.55 1006.12 1005.85 1005.73 1005.89 1006.03 1006.18 1006.43 1006.70 1006.88 1007.06 1007.17 1007.15 1007.30 1007.18 1006.93 1006.77 1006.76 1006.81 1006.88 1007.16 1007.15 1007.05 1007.68 1008.12 1008.11 1008.58 1009.20 1009.61 1010.17 1011.16 1010.25 1010.55 1010.79 1010.98 1010.93
1013.02 1012.38 1011.48 1010.84 1010.48 1010.16 1009.79 1009.60 1009.15 1008.78 1008.28 1007.76 1007.47 1007.05 1006.70 1006.57 1006.95 1006.95 1006.22 1005.76 1005.33 1005.43 1005.89 1006.17 1006.19 1006.46 1006.58 1006.79 1006.95 1006.88 1006.91 1006.95 1006.80 1006.69 1006.71 1006.63 1006.44 1006.31 1006.30 1006.37 1006.44 1006.58 1007.09 1007.08 1007.65 1008.73 1010.05 1010.68 1011.25 1010.65 1010.25 1010.51 1010.68 1010.58
1012.29 1011.78 1011.21 1010.74 1009.80 1009.27 1008.82 1008.55 1008.16 1007.55 1007.11 1007.04 1006.82 1006.34 1006.06 1006.32 1006.19 1005.77 1005.19 1004.63 1004.71 1005.09 1005.54 1006.27 1006.48 1006.48 1006.33 1006.03 1005.91 1006.06 1006.43 1006.48 1006.39 1006.36 1006.38 1006.38 1006.32 1006.27 1006.20 1006.16 1006.08 1006.23 1006.38 1006.59 1007.48 1008.72 1009.90 1010.03 1010.74 1010.70 1011.03 1010.62 1010.89 1010.86
1011.54 1010.70 1010.44 1009.25 1008.85 1008.55 1008.13 1007.65 1007.36 1006.97 1006.98 1006.54 1006.25 1006.27 1006.39 1006.18 1006.01 1005.46 1005.45 1005.78 1005.79 1005.97 1006.08 1006.43 1006.54 1006.39 1006.82 1006.77 1006.14 1005.73 1005.98 1006.04 1006.02 1006.11 1006.07 1005.99 1005.82 1005.74 1005.79 1005.94 1006.05 1006.25 1006.48 1007.25 1007.80 1008.35 1009.29 1009.78 1010.04 1010.31 1010.10 1010.55 1011.16 1011.14
1011.07 1010.29 1009.82 1009.47 1009.02 1008.73 1008.23 1007.93 1007.63 1007.42 1007.07 1006.85 1006.86 1006.88 1007.04 1006.86 1006.62 1006.31 1006.63 1006.87 1006.70 1006.97 1007.09 1007.42 1007.46 1007.06 1006.85 1006.97 1006.72 1006.41 1006.55 1006.58 1006.38 1006.37 1006.22 1006.33 1006.35 1006.20 1006.12 1006.47 1007.08 1007.24 1007.37 1007.77 1007.94 1008.05 1008.75 1009.17 1009.54 1009.98 1010.08 1010.28 1010.26 1010.42
1010.84 1010.46 1009.87 1009.58 1009.26 1009.10 1008.51 1008.26 1008.13 1007.93 1007.71 1007.72 1007.77 1007.57 1007.43 1007.16 1007.04 1007.19 1007.28 1007.50 1007.45 1007.19 1007.10 1007.38 1007.44 1007.40 1007.08 1006.87 1007.03 1007.25 1007.00 1006.45 1006.34 1006.23 1006.74 1006.80 1006.15 1006.32 1006.46 1006.93 1007.41 1007.30 1007.43 1008.10 1007.54 1007.46 1007.97 1008.86 1009.43 1009.57 1009.81 1009.98 1010.00 1009.84
1010.77 1010.72 1010.57 1009.96 1009.79 1009.31 1008.92 1008.43 1008.17 1008.22 1008.30 1008.07 1008.25 1008.01 1007.94 1007.92 1007.77 1007.56 1007.34 1007.07 1006.94 1007.03 1007.31 1007.38 1007.35 1007.56 1007.46 1006.96 1007.07 1006.87 1006.87 1006.89 1006.69 1006.58 1006.44 1006.22 1006.26 1007.05 1007.12 1006.88 1006.30 1006.83 1006.93 1007.38 1008.26 1008.18 1008.10 1008.52 1008.73 1009.09 1009.21 1009.09 1008.99 1009.46
1010.93 1010.74 1010.64 1010.29 1009.85 1009.07 1008.45 1008.71 1008.86 1009.08 1009.03 1009.16 1009.29 1009.09 1008.85 1008.15 1007.04 1006.97 1006.71 1006.66 1006.67 1006.65 1006.51 1006.24 1006.57 1006.72 1006.38 1006.25 1006.15 1005.75 1005.75 1006.27 1006.28 1006.55 1006.61 1005.91 1006.10 1006.38 1006.20 1006.11 1006.35 1006.77 1007.18 1007.23 1007.22 1007.99 1008.55 1008.60 1008.82 1008.94 1008.98 1008.87 1008.79 1008.71
1011.36 1011.19 1010.93 1010.52 1010.02 1009.39 1009.36 1009.51 1009.49 1009.49 1009.63 1009.70 1009.41 1008.91 1007.93 1007.27 1006.80 1006.55 1006.78 1006.88 1006.76 1005.93 1005.70 1005.65 1005.83 1005.73 1005.88 1005.86 1005.84 1006.14 1006.67 1006.57 1006.59 1005.90 1006.53 1006.04 1006.30 1005.90 1005.76 1005.54 1005.74 1006.33 1006.46 1006.59 1006.82 1006.89 1007.57 1007.97 1008.07 1009.07 1009.35 1009.52 1009.71 1009.53
1011.42 1011.22 1010.99 1010.37 1009.85 1009.81 1010.02 1009.78 1009.55 1009.35 1009.04 1008.79 1008.24 1008.05 1007.42 1007.14 1007.13 1006.98 1006.70 1006.18 1006.26 1006.87 1006.60 1006.33 1006.13 1006.16 1006.16 1006.05 1006.32 1006.50 1007.94 1007.52 1006.99 1006.40 1006.82 1006.56 1006.75 1006.47 1006.11 1005.54 1006.05 1006.18 1005.81 1006.69 1006.78 1007.14 1007.58 1007.58 1007.81 1008.61 1009.01 1009.33 1010.22 1010.15
1010.26 1010.22 1010.04 1009.55 1008.76 1008.51 1008.41 1008.54 1008.59 1008.68 1008.51 1008.12 1007.85 1007.35 1007.12 1007.10 1007.40 1007.14 1006.81 1007.20 1007.78 1007.74 1006.91 1006.80 1006.42 1006.18 1006.26 1006.20 1006.31 1006.26 1006.57 1006.99 1007.30 1007.33 1007.51 1007.60 1007.56 1007.02 1006.43 1006.48 1006.27 1006.37 1006.41 1006.59 1007.17 1007.41 1008.18 1008.19 1008.00 1008.63 1008.85 1009.22 1009.30 1009.17
Wind_Speed
16 16 15 14 13 13 14 13 12 11 10 10 8 7 6 8 9 6 10 7 6 8 15 15 11 9 12 9 8 13 6 6 6 8 9 6 10 5 6 4 4 4 6 8 6 10 1 10 11 4 5 5 9 3
16 16 15 14 12 12 13 13 11 11 10 10 8 7 6 7 8 6 8 3 5 6 11 18 17 16 10 2 7 4 8 13 5 5 7 8 8 0 13 4 9 9 18 12 6 6 3 3 4 7 9 5 3 6
15 15 14 13 12 12 11 11 12 12 11 10 8 7 6 6 8 6 8 9 7 10 12 14 14 17 11 8 7 5 5 11 6 5 5 10 6 9 10 14 11 28 3 1 6 5 9 10 7 4 5 6 6 5
14 14 14 13 12 11 12 13 13 12 11 11 9 7 6 7 8 7 7 9 5 7 7 12 11 6 7 7 4 7 10 6 8 5 6 6 6 7 6 8 5 5 2 1 3 9 8 3 4 4 5 5 3 8
13 13 13 12 11 11 11 12 12 12 11 10 9 7 6 7 8 9 9 9 7 6 7 10 16 8 8 10 5 8 9 9 5 5 5 6 7 7 4 5 6 8 9 6 4 9 6 6 5 2 2 1 2 3
13 13 12 12 11 10 11 12 12 12 11 9 8 6 6 7 7 7 6 9 5 4 6 6 6 6 0 4 7 9 8 7 6 5 5 6 5 4 4 7 11 7 7 13 7 11 8 7 6 9 4 6 3 4
11 11 13 11 10 11 13 13 13 11 9 8 7 5 6 7 6 5 6 5 11 7 5 5 4 7 5 7 8 6 8 6 5 7 6 8 0 2 5 11 13 6 9 8 6 6 5 6 5 7 4 9 7 7
12 13 12 11 11 13 14 14 14 11 9 8 6 5 7 9 12 8 4 10 6 6 5 5 6 4 8 7 7 6 4 5 4 5 3 5 6 3 4 8 8 6 6 3 5 7 7 5 4 2 3 4 8 4
11 11 11 11 12 14 16 16 14 11 9 6 4 5 5 5 4 4 4 6 4 5 5 5 8 5 6 8 5 6 3 6 4 7 9 5 7 7 6 8 5 1 1 5 4 5 7 4 3 2 4 3 4 11
12 11 11 12 14 17 18 17 14 11 7 3 3 6 5 5 9 4 3 5 6 6 6 6 9 4 5 6 8 6 5 7 6 9 5 8 10 10 6 9 4 4 1 4 7 4 6 3 5 8 11 10 10 10
10 11 12 14 17 20 19 17 15 12 3 2 4 1 4 2 5 5 5 5 6 5 6 8 12 7 3 4 5 4 2 4 8 7 6 7 10 8 14 9 7 4 4 5 7 5 11 4 11 11 12 10 10 10
11 11 14 17 20 21 20 18 16 4 2 1 3 6 3 3 3 4 5 5 6 7 4 9 9 7 2 3 4 1 4 1 4 2 4 8 4 8 9 9 7 5 5 7 5 10 14 13 12 10 10 9 10 10
11 14 17 21 22 21 19 17 10 2 2 2 2 3 2 3 1 6 7 4 5 3 3 5 5 4 4 4 1 2 3 4 6 4 6 2 9 7 8 8 8 6 5 11 12 12 11 11 10 10 9 7 9 8
14 18 21 22 21 19 16 16 8 1 1 2 3 2 6 6 7 6 7 4 3 3 5 5 5 5 3 6 2 3 2 3 4 6 11 6 8 8 7 8 9 9 9 9 10 9 9 9 8 8 8 7 7 7
20 21 22 21 20 18 15 11 5 1 2 4 5 5 8 4 5 5 4 2 0 4 2 3 2 2 5 3 2 4 4 5 6 5 5 6 7 5 6 7 10 12 9 7 9 8 8 8 8 7 6 6 6 5
24 15 7 21 20 16 13 8 2 2 3 4 4 4 2 3 6 4 1 4 1 2 4 3 3 2 2 2 5 7 5 2 4 7 4 7 9 8 3 6 12 10 10 9 8 7 5 4 5 6 5 5 5 4
10 4 18 19 18 14 8 1 2 4 5 4 4 3 8 2 4 5 7 4 5 2 1 1 3 3 2 3 3 2 5 3 4 4 6 6 8 8 7 8 5 5 7 8 7 5 5 6 7 6 5 1 3 3
6 16 21 18 9 5 1 1 3 3 6 6 5 6 5 2 1 1 4 1 3 4 3 2 2 5 1 1 1 4 3 8 7 4 4 5 7 7 7 9 8 4 3 4 6 5 4 4 4 4 5 4 5 6
12 12 18 10 1 1 3 2 2 3 5 3 4 3 3 3 5 2 6 2 3 1 3 0 4 3 4 5 1 5 4 2 6 8 8 8 9 9 9 10 11 10 9 7 7 7 7 8 6 4 6 7 6 3
18 14 10 5 3 1 3 2 2 4 3 2 2 3 3 4 3 5 5 5 4 4 3 1 4 2 4 6 1 1 3 6 3 9 8 9 8 9 9 9 9 9 5 7 10 8 6 7 6 4 1 5 3 1
7 3 3 2 2 3 2 3 5 1 3 3 3 3 3 4 4 5 6 6 5 5 6 4 5 4 2 3 3 4 4 3 7 4 3 4 4 7 5 6 10 9 12 10 7 8 8 6 4 6 8 3 5 3
3 2 1 1 2 1 1 2 1 3 3 1 4 2 5 6 5 6 6 7 8 6 8 5 4 2 5 5 3 3 4 1 4 3 3 5 4 6 5 3 5 2 5 3 1 7 4 7 14 1 4 4 2 4
4 1 3 5 4 2 2 3 4 4 3 4 3 5 4 2 0 4 3 4 5 5 4 5 4 2 3 2 2 4 4 4 6 7 7 5 7 8 9 10 8 5 6 7 9 8 5 12 12 3 2 4 3 3
4 3 3 2 4 3 6 6 5 6 5 4 5 4 5 3 7 5 6 7 6 7 8 3 1 4 5 3 5 7 7 7 7 7 6 8 8 8 7 6 8 5 7 9 8 6 8 6 4 4 5 6 6 4
1 2 4 4 4 4 5 5 5 5 5 7 6 3 3 4 4 4 4 6 7 7 7 6 5 4 5 4 5 6 6 6 6 6 6 7 7 7 8 9 8 7 7 5 4 11 10 8 2 3 6 2 5 5
2 4 3 3 4 3 3 5 6 4 2 4 5 4 5 2 3 1 4 6 8 7 6 6 5 1 4 6 5 3 3 3 1 4 5 6 7 6 6 7 8 4 5 6 5 10 4 10 11 10 9 9 7 8
1 2 1 1 2 1 2 0 1 1 2 2 2 3 2 2 4 1 5 4 4 4 3 2 4 4 2 2 5 4 5 5 2 3 4 5 6 8 5 5 6 5 1 4 6 9 10 9 7 9 10 10 12 8
2 3 2 1 1 2 2 1 1 2 1 1 1 4 3 3 3 3 3 3 4 4 3 3 4 5 7 5 0 4 5 5 5 4 7 8 2 2 2 4 3 4 1 5 5 3 8 9 10 11 10 8 8 10
1 2 2 4 1 2 2 3 1 2 4 1 4 3 3 3 3 5 4 4 4 2 4 6 6 6 6 7 5 7 6 5 4 8 7 3 6 3 3 5 1 6 4 7 6 3 11 9 8 8 7 7 2 6
3 2 2 2 3 4 2 2 2 4 3 4 3 2 3 5 6 5 5 4 4 6 7 7 7 10 10 8 7 8 7 8 4 2 4 2 9 8 8 5 5 7 8 9 10 11 8 7 7 7 9 8 6 7
2 2 3 3 3 4 3 3 1 0 2 2 4 5 5 3 4 2 2 4 7 5 4 9 8 4 4 6 3 6 6 2 10 3 6 2 5 1 6 1 4 8 8 8 5 6 10 8 4 7 9 10 19 18
3 3 3 4 4 4 3 2 3 3 5 5 4 5 3 2 2 2 7 4 7 8 3 6 7 4 4 2 3 9 11 8 9 8 11 6 6 8 11 3 4 4 5 10 6 5 5 5 5 5 4 6 7 5
4 5 6 4 6 7 7 4 2 3 2 1 1 2 2 2 3 2 8 10 5 8 7 5 10 7 12 12 10 9 8 7 7 8 7 4 3 7 4 4 3 8 5 3 6 4 4 15 5 2 5 3 5 12
Wind_Direction
250 249 242 243 246 249 243 239 231 218 223 227 242 265 284 306 321 315 294 270 285 298 297 294 321 327 332 12 15 335 191 239 201 243 256 87 38 324 33 219 143 22 6 268 234 272 129 351 354 338 78 92 30 24
250 243 240 240 242 246 241 224 214 216 214 216 232 253 272 300 309 321 273 179 261 264 297 320 296 289 288 11 314 355 300 297 1 213 73 62 137 215 223 243 155 179 198 254 348 21 166 127 48 31 16 64 96 26
245 243 234 233 241 237 221 222 218 210 203 208 222 241 262 290 295 294 303 324 287 262 273 250 248 244 230 218 236 259 221 346 5 22 349 176 192 203 193 208 185 217 162 298 329 17 27 46 64 64 339 326 91 137
242 235 229 228 232 225 229 226 209 195 192 199 211 233 259 283 288 292 282 301 298 282 285 269 167 185 232 257 259 277 297 303 301 308 292 268 262 203 314 336 343 6 107 239 277 267 276 215 230 335 99 3 63 72
236 232 223 224 221 227 226 207 188 182 185 197 208 228 261 285 294 283 266 267 263 285 323 321 303 181 182 235 240 250 257 275 276 274 263 275 288 325 315 305 306 310 314 258 247 63 2 55 32 130 359 178 311 125
230 220 222 215 215 220 203 181 175 176 178 196 207 225 266 290 312 278 217 199 234 257 279 269 236 161 97 351 245 238 240 255 265 282 284 291 82 11 308 283 297 264 42 47 26 15 10 347 317 299 169 234 201 114
221 223 214 205 211 204 185 172 169 166 173 187 205 231 272 288 283 283 357 358 335 315 247 248 238 161 199 222 223 217 220 246 257 252 245 272 337 132 273 265 277 10 70 52 9 337 307 269 273 235 222 132 84 76
228 212 200 203 205 187 172 161 155 163 173 185 204 247 277 284 271 263 215 209 279 266 271 265 262 164 179 216 211 217 198 224 219 255 244 233 150 214 260 265 276 61 55 20 296 276 262 332 216 156 171 132 131 201
209 202 197 200 190 176 161 154 153 161 165 184 221 283 261 221 246 61 101 143 223 297 300 235 246 236 144 230 222 173 253 217 222 216 243 210 226 226 218 246 302 102 37 335 265 272 256 217 202 207 158 199 63 53
199 196 198 191 175 160 151 147 149 146 150 172 248 211 202 79 118 127 185 196 204 203 222 259 268 215 243 197 219 183 179 245 225 206 226 237 245 244 227 177 168 118 151 316 299 236 263 209 265 81 71 71 62 55
196 196 189 172 159 151 147 147 143 127 146 207 227 45 69 133 216 219 206 231 187 214 202 228 254 292 338 270 226 191 211 220 235 235 220 226 238 238 223 149 145 201 234 266 279 311 28 48 67 78 83 63 75 63
194 191 173 158 150 147 145 146 150 163 198 261 314 272 171 213 231 239 195 230 219 223 219 198 211 237 170 355 280 16 258 322 249 234 161 247 80 92 115 132 148 178 202 217 227 74 66 49 69 79 71 65 67 69
189 172 156 149 147 144 147 149 158 19 301 252 243 208 187 191 186 222 204 207 211 233 102 198 169 211 107 245 207 227 294 210 316 242 226 168 131 128 127 127 129 157 162 92 81 82 79 70 51 69 89 80 86 85
167 152 146 143 140 142 145 155 169 314 356 197 180 240 217 197 213 212 233 249 120 207 152 177 179 210 173 196 115 237 19 245 233 258 248 105 139 142 138 130 132 128 114 109 103 102 97 87 84 79 73 78 88 91
140 134 132 131 133 134 133 135 159 276 267 240 201 207 213 249 248 201 118 123 171 23 205 83 209 301 193 207 147 86 226 228 228 249 91 133 135 130 156 141 112 105 102 114 125 111 107 115 104 97 95 91 91 94
114 97 109 130 132 133 134 136 176 275 257 253 253 249 317 226 237 216 211 169 110 174 78 38 61 26 223 198 225 199 227 242 54 65 84 124 130 147 203 85 99 90 87 88 79 90 87 81 113 125 111 123 125 100
83 75 130 123 124 132 154 144 180 229 265 252 213 247 288 237 31 45 72 46 322 82 264 159 196 150 193 249 231 253 253 52 62 40 36 92 127 139 131 109 102 117 139 142 130 146 138 145 143 146 148 162 100 134
85 123 124 125 126 144 112 248 259 246 237 224 245 173 235 174 318 282 117 128 266 283 89 235 263 202 242 207 197 64 66 86 125 142 147 104 114 118 119 103 75 348 282 165 154 154 166 158 181 175 168 196 215 208
123 127 135 137 125 160 120 201 256 288 238 295 243 23 233 193 105 328 320 90 253 301 321 86 240 211 132 242 21 118 66 224 142 141 135 131 137 153 161 162 175 200 197 192 186 192 194 199 243 197 187 169 240 109
107 108 93 75 354 162 132 194 225 259 256 203 255 181 218 283 194 204 239 251 230 222 184 86 300 332 66 59 74 171 74 1 208 155 170 156 155 170 182 181 194 193 209 215 208 215 183 189 211 218 287 44 345 182
86 61 64 339 240 221 226 176 190 306 290 222 227 194 246 247 258 215 220 232 212 228 232 235 145 88 342 349 11 59 60 72 4 111 177 115 91 293 63 288 158 169 199 205 222 206 232 232 207 181 151 210 228 225
88 142 290 204 280 314 135 272 134 318 269 327 161 219 265 210 220 232 233 214 217 229 255 283 115 176 221 231 245 240 67 101 240 145 161 165 213 163 191 114 315 140 165 206 51 303 107 43 313 48 176 169 187 245
145 226 219 217 202 130 200 174 205 173 254 195 190 189 214 239 55 23 275 267 265 261 248 274 293 280 288 310 342 318 284 235 269 282 283 246 238 225 218 220 216 186 235 243 195 188 179 162 241 143 236 169 259 218
218 244 228 212 176 198 160 197 204 193 202 196 203 206 191 181 155 203 231 227 218 185 197 201 245 259 256 259 280 264 252 250 266 274 279 284 280 282 275 260 255 239 261 275 181 169 137 122 295 243 224 183 216 233
150 289 140 288 255 186 174 188 198 195 191 192 200 239 135 138 211 223 232 183 171 163 160 160 206 245 268 265 208 194 189 242 258 260 257 253 266 273 272 272 276 281 286 311 75 129 140 126 155 125 298 292 357 347
58 190 164 239 168 186 200 197 190 173 274 211 181 148 179 215 299 281 46 38 61 55 60 40 11 61 42 343 301 307 35 313 308 277 275 269 270 272 286 269 255 270 37 72 84 91 322 167 178 171 164 160 211 243
42 34 357 221 260 130 256 20 11 335 290 69 21 57 38 212 223 166 98 41 68 66 72 23 306 290 245 309 315 342 4 323 320 315 342 341 327 320 317 4 350 351 4 177 170 188 206 194 196 185 181 188 215 230
0 346 48 136 22 284 307 80 179 239 185 117 235 196 222 304 25 37 351 337 273 250 268 291 285 288 274 249 214 299 277 254 305 12 54 310 253 258 9 75 123 185 202 232 206 174 143 153 172 186 193 205 237 251
190 119 281 188 315 272 224 241 251 68 346 314 334 358 12 8 293 268 270 277 269 250 256 229 203 208 230 236 217 252 246 104 18 297 302 219 107 345 310 254 146 184 165 146 74 62 164 162 181 183 220 256 213 145
168 156 256 198 239 222 157 95 31 44 25 18 356 275 259 231 241 232 248 255 260 241 221 202 171 189 189 190 209 213 178 150 199 180 313 251 137 188 205 169 127 148 167 183 179 147 124 163 195 234 238 213 209 230
306 225 233 241 261 275 12 12 25 89 60 253 234 258 268 326 324 330 84 273 260 244 160 149 181 183 58 59 47 76 51 45 328 155 192 15 13 106 192 213 143 179 187 209 243 186 172 201 225 62 62 29 2 337
187 202 214 235 221 187 164 199 178 220 194 207 200 205 247 178 204 332 347 17 42 17 39 42 32 69 114 86 70 103 122 237 274 16 24 35 28 326 317 44 109 231 190 147 132 138 131 177 199 132 128 64 242 303
205 190 222 246 200 170 175 162 112 65 34 98 227 202 253 10 1 340 120 98 165 240 253 190 208 201 172 183 181 183 154 92 102 93 103 92 32 14 44 7 23 352 355 143 112 103 148 269 118 161 146 170 224 213